Regional Weather Roundup
Issued by NWS

Home | Current Version | Previous Version | Text Only | Print | Product List | Glossary On
Versions: 1 2 3 4 5 6 7 8 9 10 11 12 13 14 15 16 17 18 19 20 21 22 23 24 25 26 27 28 29 30 31 32 33 34 35 36 37 38 39 40 41 42 43 44 45 46 47 48 49 50
000
ASUS46 KPQR 190110
RWROR

OREGON REGIONAL WEATHER ROUNDUP
NATIONAL WEATHER SERVICE PORTLAND OR
500 PM PST THU DEC 18 2014

NOTE: "FAIR" INDICATES FEW OR NO CLOUDS BELOW 12,000 FEET WITH
NO SIGNIFICANT WEATHER AND/OR OBSTRUCTIONS TO VISIBILITY.

ORZ001>013-190200-
NORTHWEST OREGON


CITY           SKY/WX    TMP DP  RH WIND       PRES   REMARKS
ASTORIA        RAIN      52  49  89 SE12      29.71F FOG
NEWPORT        RAIN      52  50  93 S16G23    29.81F
PORTLAND       LGT RAIN  46  42  86 E17       29.84S
VANCOUVER WA   LGT RAIN  46  40  79 SE12      29.83F
SCAPPOOSE      LGT RAIN  46  43  89 S5        29.82F
HILLSBORO      CLOUDY    51  47  86 SE9       29.81F
AURORA         CLOUDY    49  47  93 E5        29.83F
MCMINNVILLE    CLOUDY    52  47  83 SE8       29.81F
SALEM          LGT RAIN  50  47  89 SE7       29.81F
CORVALLIS      CLOUDY    52  46  82 S8        29.83F
EUGENE         CLOUDY    53  45  74 S9        29.84F
$$

ORZ021-028-190200-
SOUTHWEST OREGON


CITY           SKY/WX    TMP DP  RH WIND       PRES   REMARKS
NORTH BEND     CLOUDY    57  48  72 S17G24    29.82F
BROOKINGS      CLOUDY    53  51  93 S10       29.95F
ROSEBURG       CLOUDY    58  39  49 S9        29.86F
SEXTON SUMMIT  CLOUDY    42  35  76 S12       29.90R
MEDFORD        CLOUDY    49  44  83 NW5       29.92F
$$

ORZ014>016-041-190200-
COLUMBIA GORGE


CITY           SKY/WX    TMP DP  RH WIND       PRES   REMARKS
TROUTDALE      LGT RAIN  46  40  79 E15G29    29.85R
THE DALLES     CLOUDY    41  38  89 CALM      29.96F
$$

ORZ029>031-041-044-049-050-061>064-502-503-505>511-190200-
EASTERN OREGON


CITY           SKY/WX    TMP DP  RH WIND       PRES   REMARKS
REDMOND        CLOUDY    45  34  65 S10       29.90S
BEND           CLOUDY    45  32  61 S12       29.92S
PRINEVILLE     CLOUDY    45  34  65 SE8       29.92S
KLAMATH FALLS  MOCLDY    42  32  67 S16       29.99F
LAKEVIEW       CLOUDY    37  32  81 S14       30.08S WCI  29
HERMISTON      CLOUDY    39  38  96 CALM      29.95S FOG
PENDLETON      CLOUDY    41  39  93 NE3       29.92F
JOHN DAY       CLOUDY    44  32  63 S21G29    29.97F
MEACHAM        CLOUDY    37  34  89 CALM      29.95S
LA GRANDE      MOCLDY    43  28  56 S16       29.97F
BAKER CITY     CLOUDY    38  32  79 E17       30.01F WCI  28
BURNS          CLOUDY    36  32  85 NE5       30.03R WCI  32
ROME             N/A     38  29  70 S7        30.05R WCI  33
ONTARIO        CLOUDY    40  35  83 N5        30.11R
$$


USA.gov is the U.S. government's official web portal to all federal, state and local government web resources and services.